| time (UTC) | temp C | wind direction | speed KPH | gust KPH | rain 1hr cm | rain 24hr cm | rain mn cm | humidity % | barometer mb |
| 20260508053803 | 8 | 5 | 1.6 | 8.0 | 0.00 | 0.10 | 0.00 | 85 | 1019.3 |
| 20260508053301 | 8 | 5 | 1.6 | 8.0 | 0.00 | 0.10 | 0.00 | 85 | 1019.3 |
| 20260508052802 | 8 | 5 | 1.6 | 6.4 | 0.00 | 0.10 | 0.00 | 85 | 1019.2 |
| 20260508052306 | 8 | 5 | 3.2 | 9.7 | 0.00 | 0.10 | 0.00 | 85 | 1019.2 |
| 20260508051801 | 8 | 5 | 4.8 | 9.7 | 0.00 | 0.10 | 0.00 | 85 | 1019.1 |
| 20260508051301 | 8 | 5 | 3.2 | 8.0 | 0.00 | 0.10 | 0.00 | 85 | 1019.1 |
| 20260508050801 | 8 | 5 | 3.2 | 9.7 | 0.00 | 0.10 | 0.00 | 85 | 1019.1 |
| 20260508050302 | 8 | 5 | 4.8 | 9.7 | 0.00 | 0.10 | 0.00 | 85 | 1019.1 |
| 20260508045801 | 8 | 5 | 3.2 | 9.7 | 0.00 | 0.10 | 0.00 | 85 | 1019.1 |
| 20260508045307 | 8 | 5 | 3.2 | 8.0 | 0.00 | 0.10 | 0.00 | 85 | 1019.1 |
| 20260508044751 | 8 | 5 | 1.6 | 6.4 | 0.00 | 0.10 | 0.00 | 85 | 1019.1 |
| 20260508044513 | 8 | 5 | 3.2 | 8.0 | 0.00 | 0.10 | 0.00 | 85 | 1019.0 |
| 20260508043746 | 8 | 5 | 4.8 | 11.3 | 0.00 | 0.10 | 0.00 | 85 | 1019.0 |
| 20260508043245 | 8 | 5 | 3.2 | 11.3 | 0.00 | 0.10 | 0.00 | 85 | 1018.9 |
| 20260508042743 | 8 | 11 | 0.0 | 8.0 | 0.00 | 0.10 | 0.00 | 85 | 1019.0 |
| 20260508042243 | 8 | 11 | 0.0 | 4.8 | 0.00 | 0.10 | 0.00 | 85 | 1019.0 |
| 20260508042018 | 8 | 11 | 1.6 | 8.0 | 0.00 | 0.10 | 0.00 | 85 | 1018.9 |
| 20260508041513 | 8 | 11 | 3.2 | 8.0 | 0.00 | 0.10 | 0.00 | 85 | 1018.9 |
| 20260508040746 | 8 | 11 | 1.6 | 8.0 | 0.00 | 0.10 | 0.00 | 85 | 1018.8 |
| 20260508040238 | 8 | 11 | 1.6 | 8.0 | 0.00 | 0.10 | 0.00 | 85 | 1018.8 |
| 20260508040008 | 8 | 11 | 1.6 | 8.0 | 0.00 | 0.10 | 0.00 | 85 | 1018.8 |
| 20260508035235 | 8 | 11 | 0.0 | 4.8 | 0.00 | 0.10 | 0.00 | 85 | 1018.8 |
| 20260508034733 | 8 | 11 | 0.0 | 4.8 | 0.00 | 0.10 | 0.00 | 85 | 1018.8 |
| 20260508034232 | 8 | 11 | 1.6 | 6.4 | 0.00 | 0.10 | 0.00 | 85 | 1018.8 |
| 20260508033730 | 8 | 11 | 0.0 | 6.4 | 0.00 | 0.10 | 0.00 | 85 | 1018.7 |
| 20260508033229 | 8 | 11 | 0.0 | 0.0 | 0.00 | 0.10 | 0.00 | 85 | 1018.5 |
| 20260508032735 | 8 | 11 | 0.0 | 0.0 | 0.00 | 0.10 | 0.00 | 85 | 1018.5 |
| 20260508032234 | 8 | 11 | 0.0 | 0.0 | 0.00 | 0.10 | 0.00 | 85 | 1018.3 |
| 20260508031722 | 8 | 11 | 0.0 | 4.8 | 0.00 | 0.10 | 0.00 | 85 | 1018.3 |
| 20260508031216 | 8 | 11 | 1.6 | 9.7 | 0.00 | 0.10 | 0.00 | 85 | 1018.5 |
| 20260508030705 | 8 | 11 | 1.6 | 9.7 | 0.00 | 0.10 | 0.00 | 85 | 1018.5 |
| 20260508030434 | 8 | 14 | 1.6 | 8.0 | 0.00 | 0.10 | 0.00 | 85 | 1018.3 |
| 20260508025706 | 8 | 14 | 1.6 | 8.0 | 0.00 | 0.10 | 0.00 | 85 | 1018.3 |
| 20260508025205 | 8 | 15 | 1.6 | 8.0 | 0.00 | 0.10 | 0.00 | 85 | 1018.3 |
| 20260508024706 | 8 | 15 | 1.6 | 4.8 | 0.00 | 0.10 | 0.00 | 85 | 1018.3 |
| 20260508024204 | 8 | 15 | 1.6 | 6.4 | 0.00 | 0.10 | 0.00 | 85 | 1018.3 |
| 20260508023703 | 8 | 15 | 0.0 | 8.0 | 0.00 | 0.10 | 0.00 | 85 | 1018.3 |
| 20260508023202 | 8 | 15 | 1.6 | 8.0 | 0.00 | 0.10 | 0.00 | 85 | 1018.2 |
| 20260508022701 | 8 | 15 | 3.2 | 8.0 | 0.00 | 0.10 | 0.00 | 85 | 1018.2 |
| 20260508022434 | 8 | 16 | 3.2 | 8.0 | 0.00 | 0.10 | 0.00 | 85 | 1018.1 |
| 20260508021703 | 8 | 16 | 3.2 | 8.0 | 0.00 | 0.10 | 0.00 | 85 | 1018.1 |
| 20260508021201 | 8 | 17 | 3.2 | 9.7 | 0.00 | 0.10 | 0.00 | 85 | 1018.1 |
| 20260508020706 | 8 | 18 | 3.2 | 11.3 | 0.00 | 0.10 | 0.00 | 84 | 1018.1 |
| 20260508020206 | 8 | 0 | 4.8 | 11.3 | 0.00 | 0.10 | 0.00 | 85 | 1018.1 |
| 20260508015705 | 8 | 11 | 4.8 | 11.3 | 0.00 | 0.10 | 0.00 | 85 | 1018.0 |
| 20260508015205 | 8 | 0 | 4.8 | 11.3 | 0.00 | 0.10 | 0.00 | 84 | 1018.0 |
| 20260508014702 | 9 | 5 | 6.4 | 11.3 | 0.00 | 0.10 | 0.00 | 84 | 1018.0 |
| 20260508014156 | 9 | 5 | 6.4 | 11.3 | 0.00 | 0.10 | 0.00 | 84 | 1017.8 |
| 20260508013918 | 9 | 5 | 6.4 | 12.9 | 0.00 | 0.10 | 0.00 | 84 | 1017.8 |
| 20260508013154 | 9 | 5 | 4.8 | 12.9 | 0.00 | 0.10 | 0.00 | 84 | 1017.8 |
| 20260508012653 | 9 | 350 | 3.2 | 8.0 | 0.00 | 0.10 | 0.00 | 85 | 1017.7 |
| 20260508012150 | 9 | 0 | 3.2 | 8.0 | 0.00 | 0.10 | 0.00 | 85 | 1017.7 |
| 20260508011649 | 9 | 355 | 3.2 | 8.0 | 0.00 | 0.10 | 0.00 | 85 | 1017.8 |
| 20260508011146 | 9 | 0 | 3.2 | 9.7 | 0.00 | 0.10 | 0.00 | 85 | 1017.8 |
| 20260508010644 | 9 | 0 | 1.6 | 11.3 | 0.00 | 0.10 | 0.00 | 85 | 1017.8 |
| 20260508010141 | 9 | 0 | 1.6 | 11.3 | 0.00 | 0.10 | 0.00 | 85 | 1017.7 |
| 20260508005640 | 9 | 336 | 4.8 | 11.3 | 0.00 | 0.10 | 0.00 | 85 | 1017.8 |
| 20260508005139 | 9 | 317 | 4.8 | 9.7 | 0.00 | 0.10 | 0.00 | 85 | 1017.8 |
| 20260508004640 | 9 | 319 | 1.6 | 8.0 | 0.00 | 0.10 | 0.00 | 84 | 1017.8 |
| 20260508004138 | 10 | 319 | 0.0 | 6.4 | 0.00 | 0.10 | 0.00 | 85 | 1017.9 |
| 20260508003636 | 10 | 319 | 0.0 | 6.4 | 0.00 | 0.10 | 0.00 | 85 | 1017.9 |
| 20260508003355 | 10 | 319 | 1.6 | 6.4 | 0.00 | 0.10 | 0.00 | 85 | 1017.9 |
| 20260508002631 | 10 | 319 | 1.6 | 9.7 | 0.00 | 0.10 | 0.00 | 85 | 1017.8 |
| 20260508002355 | 10 | 319 | 1.6 | 9.7 | 0.00 | 0.10 | 0.00 | 85 | 1017.8 |
| 20260508001629 | 10 | 321 | 1.6 | 6.4 | 0.00 | 0.10 | 0.00 | 85 | 1017.9 |
| 20260508001129 | 10 | 321 | 1.6 | 6.4 | 0.00 | 0.10 | 0.00 | 85 | 1018.0 |
| 20260508000629 | 10 | 321 | 1.6 | 8.0 | 0.00 | 0.10 | 0.00 | 85 | 1017.9 |
| 20260508000400 | 10 | 321 | 3.2 | 11.3 | 0.00 | 0.10 | 0.00 | 85 | 1017.9 |
| 20260507235633 | 10 | 324 | 3.2 | 11.3 | 0.00 | 0.10 | 0.00 | 85 | 1017.9 |
| 20260507235133 | 10 | 333 | 1.6 | 8.0 | 0.00 | 0.10 | 0.00 | 84 | 1017.8 |
| 20260507234630 | 10 | 333 | 1.6 | 4.8 | 0.00 | 0.10 | 0.00 | 84 | 1017.8 |
| 20260507234129 | 10 | 334 | 0.0 | 4.8 | 0.00 | 0.10 | 0.00 | 84 | 1017.8 |
| 20260507234124 | 10 | 333 | 0.0 | 3.2 | 0.00 | 0.10 | 0.00 | 84 | 1017.7 |
| 20260507233350 | 10 | 333 | 0.0 | 4.8 | 0.00 | 0.10 | 0.00 | 84 | 1017.8 |
| 20260507232629 | 10 | 333 | 0.0 | 4.8 | 0.00 | 0.10 | 0.00 | 84 | 1017.8 |
| 20260507232129 | 10 | 334 | 0.0 | 0.0 | 0.00 | 0.10 | 0.00 | 84 | 1017.8 |
| 20260507231629 | 10 | 334 | 0.0 | 0.0 | 0.00 | 0.10 | 0.00 | 84 | 1017.7 |
| 20260507231128 | 10 | 334 | 1.6 | 4.8 | 0.00 | 0.10 | 0.00 | 84 | 1017.7 |
| 20260507230634 | 10 | 334 | 1.6 | 6.4 | 0.00 | 0.10 | 0.00 | 84 | 1017.7 |
| 20260507230131 | 10 | 334 | 1.6 | 6.4 | 0.00 | 0.10 | 0.00 | 84 | 1017.8 |
| 20260507225630 | 10 | 334 | 1.6 | 8.0 | 0.00 | 0.10 | 0.00 | 84 | 1017.8 |
| 20260507225129 | 10 | 334 | 1.6 | 9.7 | 0.00 | 0.10 | 0.00 | 84 | 1017.7 |
| 20260507224629 | 10 | 333 | 1.6 | 9.7 | 0.00 | 0.10 | 0.00 | 84 | 1017.8 |
| 20260507224353 | 10 | 339 | 0.0 | 8.0 | 0.00 | 0.10 | 0.00 | 84 | 1017.7 |
| 20260507223622 | 10 | 339 | 1.6 | 6.4 | 0.00 | 0.10 | 0.00 | 84 | 1017.7 |
| 20260507223112 | 10 | 339 | 3.2 | 9.7 | 0.00 | 0.10 | 0.00 | 84 | 1017.6 |
| 20260507222610 | 10 | 339 | 1.6 | 9.7 | 0.00 | 0.10 | 0.00 | 84 | 1017.6 |
| 20260507222106 | 10 | 334 | 1.6 | 8.0 | 0.00 | 0.10 | 0.00 | 84 | 1017.6 |
| 20260507221605 | 10 | 334 | 1.6 | 8.0 | 0.00 | 0.10 | 0.00 | 84 | 1017.7 |
| 20260507221105 | 10 | 338 | 0.0 | 4.8 | 0.00 | 0.10 | 0.00 | 84 | 1017.6 |
| 20260507220604 | 10 | 338 | 0.0 | 6.4 | 0.00 | 0.10 | 0.00 | 84 | 1017.5 |
| 20260507220104 | 10 | 338 | 1.6 | 6.4 | 0.00 | 0.10 | 0.00 | 84 | 1017.6 |
| 20260507215603 | 10 | 338 | 1.6 | 11.3 | 0.00 | 0.10 | 0.10 | 84 | 1017.6 |
| 20260507215104 | 10 | 338 | 1.6 | 11.3 | 0.00 | 0.10 | 0.10 | 84 | 1017.6 |
| 20260507214604 | 10 | 331 | 1.6 | 9.7 | 0.00 | 0.10 | 0.10 | 84 | 1017.4 |
| 20260507214104 | 10 | 331 | 1.6 | 9.7 | 0.00 | 0.10 | 0.10 | 84 | 1017.3 |
| 20260507213603 | 10 | 319 | 0.0 | 6.4 | 0.00 | 0.10 | 0.10 | 84 | 1017.3 |
| 20260507213324 | 10 | 319 | 1.6 | 6.4 | 0.00 | 0.10 | 0.10 | 84 | 1017.3 |
| 20260507212602 | 10 | 319 | 1.6 | 6.4 | 0.00 | 0.10 | 0.10 | 84 | 1017.4 |
| 20260507212101 | 10 | 319 | 1.6 | 8.0 | 0.00 | 0.10 | 0.10 | 84 | 1017.3 |
| 20260507211606 | 10 | 319 | 1.6 | 9.7 | 0.00 | 0.10 | 0.10 | 84 | 1017.4 |
| 20260507211334 | 10 | 324 | 1.6 | 9.7 | 0.00 | 0.10 | 0.10 | 84 | 1017.3 |
| 20260507210601 | 10 | 317 | 3.2 | 8.0 | 0.00 | 0.10 | 0.10 | 84 | 1017.2 |
| 20260507210327 | 10 | 323 | 1.6 | 8.0 | 0.00 | 0.10 | 0.10 | 84 | 1017.3 |
| 20260507205600 | 11 | 323 | 1.6 | 8.0 | 0.00 | 0.10 | 0.10 | 84 | 1017.1 |
| 20260507205057 | 11 | 333 | 1.6 | 6.4 | 0.00 | 0.10 | 0.10 | 84 | 1017.0 |
| 20260507204552 | 11 | 336 | 1.6 | 6.4 | 0.00 | 0.10 | 0.10 | 84 | 1016.9 |
| 20260507204316 | 11 | 336 | 1.6 | 8.0 | 0.00 | 0.10 | 0.10 | 84 | 1017.0 |
| 20260507203809 | 11 | 336 | 0.0 | 8.0 | 0.00 | 0.10 | 0.10 | 84 | 1016.9 |
| 20260507203040 | 11 | 336 | 0.0 | 4.8 | 0.00 | 0.10 | 0.10 | 84 | 1016.9 |
| 20260507202537 | 11 | 336 | 1.6 | 4.8 | 0.00 | 0.10 | 0.10 | 84 | 1016.9 |
| 20260507202035 | 11 | 336 | 1.6 | 6.4 | 0.00 | 0.10 | 0.10 | 84 | 1016.9 |
| 20260507201804 | 11 | 336 | 1.6 | 6.4 | 0.00 | 0.10 | 0.10 | 84 | 1016.9 |
| 20260507201034 | 11 | 338 | 1.6 | 9.7 | 0.00 | 0.10 | 0.10 | 84 | 1016.8 |
| 20260507200533 | 11 | 350 | 3.2 | 11.3 | 0.00 | 0.10 | 0.10 | 84 | 1016.7 |
| 20260507200033 | 11 | 350 | 3.2 | 11.3 | 0.00 | 0.10 | 0.10 | 84 | 1016.7 |
| 20260507195534 | 11 | 334 | 3.2 | 9.7 | 0.00 | 0.10 | 0.10 | 84 | 1016.7 |
| 20260507195032 | 11 | 302 | 4.8 | 12.9 | 0.00 | 0.10 | 0.10 | 84 | 1016.7 |
| 20260507194531 | 11 | 300 | 6.4 | 12.9 | 0.00 | 0.10 | 0.10 | 84 | 1016.6 |
| 20260507194307 | 11 | 305 | 4.8 | 9.7 | 0.00 | 0.10 | 0.10 | 84 | 1016.6 |
| 20260507193530 | 11 | 306 | 3.2 | 9.7 | 0.00 | 0.10 | 0.10 | 84 | 1016.6 |
| 20260507193029 | 11 | 331 | 1.6 | 9.7 | 0.00 | 0.10 | 0.10 | 84 | 1016.5 |
| 20260507192533 | 11 | 341 | 0.0 | 6.4 | 0.00 | 0.10 | 0.10 | 84 | 1016.4 |
| 20260507192034 | 11 | 348 | 0.0 | 1.6 | 0.00 | 0.10 | 0.10 | 84 | 1016.3 |
| 20260507191533 | 12 | 348 | 0.0 | 8.0 | 0.00 | 0.10 | 0.10 | 84 | 1016.3 |
| 20260507191033 | 12 | 348 | 1.6 | 8.0 | 0.00 | 0.10 | 0.10 | 84 | 1016.2 |
| 20260507190533 | 12 | 347 | 1.6 | 9.7 | 0.00 | 0.10 | 0.10 | 84 | 1016.1 |
| 20260507190301 | 12 | 350 | 3.2 | 11.3 | 0.00 | 0.10 | 0.10 | 84 | 1016.2 |
| 20260507185533 | 12 | 350 | 4.8 | 11.3 | 0.00 | 0.10 | 0.10 | 84 | 1016.1 |
| 20260507185033 | 12 | 355 | 4.8 | 11.3 | 0.00 | 0.10 | 0.10 | 84 | 1015.9 |
| 20260507184757 | 12 | 341 | 3.2 | 11.3 | 0.00 | 0.10 | 0.10 | 84 | 1015.8 |
| 20260507184029 | 12 | 350 | 1.6 | 11.3 | 0.00 | 0.10 | 0.10 | 84 | 1015.9 |
| 20260507183529 | 13 | 346 | 1.6 | 6.4 | 0.03 | 0.10 | 0.10 | 84 | 1015.8 |
| 20260507183256 | 13 | 346 | 1.6 | 6.4 | 0.05 | 0.10 | 0.10 | 84 | 1015.8 |
| 20260507182529 | 13 | 346 | 0.0 | 6.4 | 0.08 | 0.10 | 0.10 | 84 | 1015.7 |
| 20260507182257 | 13 | 355 | 1.6 | 6.4 | 0.08 | 0.10 | 0.10 | 84 | 1015.7 |
| 20260507181529 | 13 | 355 | 1.6 | 11.3 | 0.10 | 0.10 | 0.10 | 84 | 1015.3 |
| 20260507181029 | 13 | 355 | 1.6 | 11.3 | 0.10 | 0.10 | 0.10 | 84 | 1015.2 |
| 20260507180529 | 13 | 355 | 1.6 | 4.8 | 0.10 | 0.10 | 0.10 | 84 | 1015.0 |
| 20260507180033 | 13 | 351 | 1.6 | 9.7 | 0.10 | 0.10 | 0.10 | 84 | 1014.7 |
| 20260507175534 | 13 | 348 | 3.2 | 9.7 | 0.10 | 0.10 | 0.10 | 84 | 1014.9 |
| 20260507175034 | 13 | 346 | 3.2 | 8.0 | 0.10 | 0.10 | 0.10 | 84 | 1014.8 |
| 20260507174533 | 13 | 340 | 0.0 | 3.2 | 0.10 | 0.10 | 0.10 | 84 | 1015.0 |
| 20260507174034 | 13 | 340 | 0.0 | 6.4 | 0.10 | 0.10 | 0.10 | 84 | 1015.1 |
| 20260507173533 | 14 | 340 | 1.6 | 9.7 | 0.08 | 0.08 | 0.08 | 84 | 1015.3 |
| 20260507173033 | 14 | 347 | 1.6 | 14.5 | 0.05 | 0.05 | 0.05 | 83 | 1015.2 |
| 20260507172533 | 14 | 326 | 1.6 | 14.5 | 0.03 | 0.03 | 0.03 | 83 | 1015.1 |
| 20260507172034 | 15 | 323 | 3.2 | 11.3 | 0.03 | 0.03 | 0.00 | 82 | 1015.0 |
| 20260507171805 | 15 | 313 | 4.8 | 11.3 | 0.00 | 0.00 | 0.00 | 82 | 1014.9 |
| 20260507171259 | 15 | 350 | 4.8 | 12.9 | 0.00 | 0.00 | 0.00 | 81 | 1014.7 |
| 20260507170801 | 15 | 355 | 4.8 | 12.9 | 0.00 | 0.00 | 0.00 | 81 | 1014.6 |
| 20260507170528 | 15 | 25 | 4.8 | 12.9 | 0.00 | 0.00 | 0.00 | 81 | 1014.4 |
| 20260507165534 | 15 | 11 | 4.8 | 12.9 | 0.00 | 0.00 | 0.00 | 81 | 1014.4 |
| 20260507165029 | 15 | 17 | 6.4 | 12.9 | 0.00 | 0.00 | 0.00 | 80 | 1014.3 |
| 20260507164528 | 15 | 32 | 6.4 | 12.9 | 0.00 | 0.00 | 0.00 | 80 | 1014.0 |
| 20260507164029 | 15 | 0 | 8.0 | 14.5 | 0.00 | 0.00 | 0.00 | 80 | 1014.2 |
| 20260507163529 | 16 | 13 | 8.0 | 14.5 | 0.00 | 0.00 | 0.00 | 80 | 1013.9 |
| 20260507163030 | 16 | 13 | 6.4 | 16.1 | 0.00 | 0.00 | 0.00 | 79 | 1013.8 |
| 20260507162529 | 16 | 35 | 8.0 | 17.7 | 0.00 | 0.00 | 0.00 | 79 | 1013.9 |
| 20260507162024 | 16 | 23 | 9.7 | 17.7 | 0.00 | 0.00 | 0.00 | 79 | 1013.9 |
| 20260507161522 | 16 | 5 | 9.7 | 16.1 | 0.00 | 0.00 | 0.00 | 79 | 1013.9 |
| 20260507161015 | 16 | 32 | 6.4 | 20.9 | 0.00 | 0.00 | 0.00 | 79 | 1013.8 |
| 20260507160507 | 16 | 67 | 6.4 | 20.9 | 0.00 | 0.00 | 0.00 | 79 | 1013.8 |
| 20260507160007 | 16 | 44 | 8.0 | 16.1 | 0.00 | 0.00 | 0.00 | 79 | 1013.7 |
| 20260507155508 | 16 | 51 | 8.0 | 16.1 | 0.00 | 0.00 | 0.00 | 79 | 1013.7 |
| 20260507155006 | 16 | 32 | 8.0 | 14.5 | 0.00 | 0.00 | 0.00 | 79 | 1013.6 |
| 20260507154506 | 16 | 24 | 9.7 | 14.5 | 0.00 | 0.00 | 0.00 | 78 | 1013.6 |
| 20260507154009 | 16 | 355 | 9.7 | 16.1 | 0.00 | 0.00 | 0.00 | 78 | 1013.7 |
| 20260507153505 | 17 | 15 | 9.7 | 19.3 | 0.00 | 0.00 | 0.00 | 77 | 1013.7 |
| 20260507153005 | 17 | 57 | 9.7 | 20.9 | 0.00 | 0.00 | 0.00 | 77 | 1013.7 |
| 20260507152506 | 17 | 355 | 9.7 | 20.9 | 0.00 | 0.00 | 0.00 | 77 | 1013.6 |
| 20260507152004 | 17 | 351 | 9.7 | 20.9 | 0.00 | 0.00 | 0.00 | 77 | 1013.6 |
| 20260507151506 | 17 | 37 | 9.7 | 20.9 | 0.00 | 0.00 | 0.00 | 76 | 1013.6 |
| 20260507151035 | 18 | 5 | 9.7 | 22.5 | 0.00 | 0.00 | 0.00 | 74 | 1013.4 |
| 20260507151022 | 17 | 14 | 11.3 | 20.9 | 0.00 | 0.00 | 0.00 | 75 | 1013.4 |
| 20260507150007 | 18 | 334 | 6.4 | 22.5 | 0.00 | 0.00 | 0.00 | 72 | 1013.1 |
| 20260507145507 | 18 | 304 | 6.4 | 14.5 | 0.00 | 0.00 | 0.00 | 73 | 1013.2 |
| 20260507145229 | 18 | 317 | 9.7 | 19.3 | 0.00 | 0.00 | 0.00 | 73 | 1013.2 |
| 20260507144446 | 18 | 350 | 11.3 | 25.7 | 0.00 | 0.00 | 0.00 | 73 | 1013.2 |
| 20260507143939 | 18 | 0 | 11.3 | 25.7 | 0.00 | 0.00 | 0.00 | 73 | 1013.1 |
| 20260507143439 | 18 | 0 | 6.4 | 17.7 | 0.00 | 0.00 | 0.00 | 72 | 1013.0 |
| 20260507142939 | 18 | 321 | 6.4 | 17.7 | 0.00 | 0.00 | 0.00 | 72 | 1013.0 |
| 20260507142436 | 18 | 349 | 8.0 | 22.5 | 0.00 | 0.00 | 0.00 | 72 | 1013.0 |
| 20260507142214 | 19 | 347 | 8.0 | 22.5 | 0.00 | 0.00 | 0.00 | 71 | 1013.0 |
| 20260507141436 | 19 | 291 | 9.7 | 20.9 | 0.00 | 0.00 | 0.00 | 70 | 1013.0 |
| 20260507140938 | 20 | 306 | 9.7 | 20.9 | 0.00 | 0.00 | 0.00 | 68 | 1013.1 |
| 20260507140706 | 20 | 319 | 9.7 | 20.9 | 0.00 | 0.00 | 0.00 | 68 | 1013.1 |
| 20260507135941 | 20 | 355 | 8.0 | 20.9 | 0.00 | 0.00 | 0.00 | 68 | 1013.1 |
| 20260507135447 | 20 | 334 | 9.7 | 24.1 | 0.00 | 0.00 | 0.00 | 69 | 1013.0 |
| 20260507135209 | 20 | 296 | 9.7 | 24.1 | 0.00 | 0.00 | 0.00 | 67 | 1013.0 |
| 20260507134430 | 20 | 307 | 9.7 | 22.5 | 0.00 | 0.00 | 0.00 | 67 | 1013.0 |
| 20260507133929 | 20 | 304 | 11.3 | 27.4 | 0.00 | 0.00 | 0.00 | 67 | 1013.0 |
| 20260507133429 | 20 | 355 | 11.3 | 27.4 | 0.00 | 0.00 | 0.00 | 66 | 1012.9 |
| 20260507132930 | 21 | 344 | 9.7 | 22.5 | 0.00 | 0.00 | 0.00 | 65 | 1012.9 |
| 20260507132430 | 20 | 355 | 11.3 | 29.0 | 0.00 | 0.00 | 0.00 | 66 | 1012.9 |
| 20260507132148 | 20 | 346 | 11.3 | 29.0 | 0.00 | 0.00 | 0.00 | 64 | 1013.0 |
| 20260507131429 | 21 | 274 | 9.7 | 17.7 | 0.00 | 0.00 | 0.00 | 58 | 1012.8 |
| 20260507130928 | 21 | 288 | 8.0 | 16.1 | 0.00 | 0.00 | 0.00 | 58 | 1012.7 |
| 20260507130429 | 21 | 289 | 6.4 | 14.5 | 0.00 | 0.00 | 0.00 | 59 | 1012.8 |
| 20260507130157 | 20 | 315 | 6.4 | 14.5 | 0.00 | 0.00 | 0.00 | 62 | 1012.8 |
| 20260507125433 | 20 | 300 | 8.0 | 14.5 | 0.00 | 0.00 | 0.00 | 63 | 1012.8 |
| 20260507124936 | 20 | 302 | 6.4 | 14.5 | 0.00 | 0.00 | 0.00 | 60 | 1012.9 |
| 20260507124927 | 20 | 260 | 3.2 | 11.3 | 0.00 | 0.00 | 0.00 | 60 | 1013.0 |
| 20260507124203 | 20 | 208 | 3.2 | 11.3 | 0.00 | 0.00 | 0.00 | 61 | 1013.0 |
| 20260507123433 | 20 | 207 | 4.8 | 16.1 | 0.00 | 0.00 | 0.00 | 60 | 1013.0 |
| 20260507123157 | 20 | 238 | 4.8 | 16.1 | 0.00 | 0.00 | 0.00 | 60 | 1012.9 |
| 20260507122433 | 20 | 250 | 3.2 | 11.3 | 0.00 | 0.00 | 0.00 | 60 | 1012.9 |
| 20260507121926 | 20 | 238 | 3.2 | 11.3 | 0.00 | 0.00 | 0.00 | 61 | 1013.0 |
| 20260507121427 | 20 | 125 | 3.2 | 12.9 | 0.00 | 0.00 | 0.00 | 65 | 1013.0 |
| 20260507121154 | 20 | 123 | 1.6 | 12.9 | 0.00 | 0.00 | 0.00 | 66 | 1012.8 |
| 20260507120428 | 19 | 198 | 1.6 | 8.0 | 0.00 | 0.00 | 0.00 | 67 | 1013.1 |
| 20260507115926 | 19 | 198 | 3.2 | 11.3 | 0.00 | 0.00 | 0.00 | 67 | 1013.2 |
| 20260507115921 | 19 | 205 | 3.2 | 11.3 | 0.00 | 0.00 | 0.00 | 67 | 1013.1 |
| 20260507114926 | 18 | 246 | 3.2 | 14.5 | 0.00 | 0.00 | 0.00 | 65 | 1013.1 |
| 20260507114426 | 18 | 248 | 4.8 | 14.5 | 0.00 | 0.00 | 0.00 | 66 | 1013.2 |
| 20260507113927 | 18 | 279 | 6.4 | 14.5 | 0.00 | 0.00 | 0.00 | 66 | 1013.2 |
| 20260507113421 | 18 | 281 | 4.8 | 14.5 | 0.00 | 0.00 | 0.00 | 67 | 1013.2 |
| 20260507112909 | 18 | 288 | 6.4 | 14.5 | 0.00 | 0.00 | 0.00 | 67 | 1013.3 |
| 20260507112403 | 18 | 269 | 8.0 | 14.5 | 0.00 | 0.00 | 0.00 | 66 | 1013.2 |
| 20260507111904 | 19 | 249 | 6.4 | 16.1 | 0.00 | 0.00 | 0.00 | 65 | 1013.2 |
| 20260507111403 | 19 | 296 | 3.2 | 16.1 | 0.00 | 0.00 | 0.00 | 64 | 1013.1 |
| 20260507111129 | 19 | 338 | 1.6 | 9.7 | 0.00 | 0.00 | 0.00 | 66 | 1013.0 |
| 20260507110403 | 19 | 341 | 3.2 | 9.7 | 0.00 | 0.00 | 0.00 | 66 | 1013.1 |
| 20260507105902 | 19 | 336 | 4.8 | 11.3 | 0.00 | 0.00 | 0.00 | 67 | 1013.1 |
| 20260507105405 | 18 | 279 | 4.8 | 11.3 | 0.00 | 0.00 | 0.00 | 67 | 1013.1 |
| 20260507104905 | 18 | 284 | 6.4 | 12.9 | 0.00 | 0.00 | 0.00 | 66 | 1013.1 |
| 20260507104405 | 18 | 248 | 4.8 | 12.9 | 0.00 | 0.00 | 0.00 | 67 | 1013.1 |
| 20260507104353 | 18 | 300 | 4.8 | 11.3 | 0.00 | 0.00 | 0.00 | 68 | 1013.1 |
| 20260507103354 | 18 | 288 | 4.8 | 11.3 | 0.00 | 0.00 | 0.00 | 69 | 1013.1 |
| 20260507102848 | 18 | 281 | 4.8 | 11.3 | 0.00 | 0.00 | 0.00 | 68 | 1013.0 |
| 20260507102343 | 18 | 227 | 4.8 | 12.9 | 0.00 | 0.00 | 0.00 | 68 | 1013.1 |
| 20260507101836 | 18 | 219 | 6.4 | 16.1 | 0.00 | 0.00 | 0.00 | 68 | 1013.1 |
| 20260507101336 | 19 | 242 | 3.2 | 16.1 | 0.00 | 0.00 | 0.00 | 67 | 1013.0 |
| 20260507101055 | 18 | 286 | 3.2 | 12.9 | 0.00 | 0.00 | 0.00 | 69 | 1013.0 |
| 20260507100334 | 18 | 275 | 6.4 | 12.9 | 0.00 | 0.00 | 0.00 | 69 | 1013.1 |
| 20260507095835 | 18 | 290 | 4.8 | 11.3 | 0.00 | 0.00 | 0.00 | 70 | 1013.0 |
| 20260507095332 | 18 | 298 | 4.8 | 14.5 | 0.00 | 0.00 | 0.00 | 70 | 1012.9 |
| 20260507094832 | 18 | 266 | 6.4 | 16.1 | 0.00 | 0.00 | 0.00 | 71 | 1012.9 |
| 20260507094332 | 18 | 288 | 6.4 | 16.1 | 0.00 | 0.00 | 0.00 | 70 | 1012.8 |
| 20260507093832 | 17 | 286 | 4.8 | 12.9 | 0.00 | 0.00 | 0.00 | 73 | 1012.8 |
| 20260507093330 | 17 | 287 | 4.8 | 12.9 | 0.00 | 0.00 | 0.00 | 73 | 1012.9 |
| 20260507092831 | 17 | 286 | 6.4 | 12.9 | 0.00 | 0.00 | 0.00 | 73 | 1012.8 |
| 20260507092600 | 17 | 278 | 4.8 | 12.9 | 0.00 | 0.00 | 0.00 | 74 | 1012.8 |
| 20260507092055 | 17 | 338 | 3.2 | 9.7 | 0.00 | 0.00 | 0.00 | 76 | 1012.7 |
| 20260507091329 | 17 | 279 | 1.6 | 9.7 | 0.00 | 0.00 | 0.00 | 77 | 1012.7 |
| 20260507090830 | 17 | 340 | 1.6 | 9.7 | 0.00 | 0.00 | 0.00 | 78 | 1012.7 |
| 20260507090334 | 16 | 337 | 1.6 | 8.0 | 0.00 | 0.00 | 0.00 | 78 | 1012.7 |
| 20260507085833 | 16 | 337 | 1.6 | 12.9 | 0.00 | 0.00 | 0.00 | 80 | 1012.7 |
| 20260507085331 | 16 | 346 | 3.2 | 12.9 | 0.00 | 0.00 | 0.00 | 80 | 1012.6 |
| 20260507084826 | 16 | 333 | 4.8 | 11.3 | 0.00 | 0.00 | 0.00 | 81 | 1012.6 |
| 20260507084320 | 16 | 332 | 3.2 | 9.7 | 0.00 | 0.00 | 0.00 | 81 | 1012.6 |
| 20260507083817 | 16 | 348 | 3.2 | 9.7 | 0.00 | 0.00 | 0.00 | 82 | 1012.5 |
| 20260507083318 | 16 | 301 | 4.8 | 8.0 | 0.00 | 0.00 | 0.00 | 82 | 1012.5 |
| 20260507082818 | 16 | 301 | 3.2 | 8.0 | 0.00 | 0.00 | 0.00 | 82 | 1012.5 |
| 20260507082316 | 16 | 301 | 1.6 | 8.0 | 0.00 | 0.00 | 0.00 | 82 | 1012.3 |
| 20260507081814 | 16 | 296 | 3.2 | 11.3 | 0.00 | 0.00 | 0.00 | 82 | 1012.3 |
| 20260507081314 | 16 | 298 | 6.4 | 12.9 | 0.00 | 0.00 | 0.00 | 83 | 1012.2 |
| 20260507080812 | 16 | 313 | 6.4 | 12.9 | 0.00 | 0.00 | 0.00 | 83 | 1012.2 |
| 20260507080312 | 16 | 299 | 6.4 | 12.9 | 0.00 | 0.00 | 0.00 | 83 | 1012.1 |
| 20260507075810 | 16 | 292 | 6.4 | 12.9 | 0.00 | 0.00 | 0.00 | 83 | 1012.1 |
| 20260507075310 | 15 | 289 | 6.4 | 12.9 | 0.00 | 0.00 | 0.00 | 83 | 1012.1 |
| 20260507074810 | 15 | 287 | 3.2 | 11.3 | 0.00 | 0.00 | 0.00 | 84 | 1012.0 |
| 20260507074536 | 15 | 282 | 3.2 | 9.7 | 0.00 | 0.00 | 0.00 | 84 | 1011.9 |
| 20260507073806 | 15 | 279 | 4.8 | 9.7 | 0.00 | 0.00 | 0.00 | 84 | 1011.8 |
| 20260507073306 | 15 | 279 | 4.8 | 11.3 | 0.00 | 0.00 | 0.00 | 84 | 1011.9 |
| 20260507072806 | 15 | 277 | 6.4 | 14.5 | 0.00 | 0.00 | 0.00 | 84 | 1011.7 |
| 20260507072306 | 15 | 278 | 6.4 | 16.1 | 0.00 | 0.00 | 0.00 | 84 | 1011.8 |
| 20260507071802 | 15 | 304 | 8.0 | 16.1 | 0.00 | 0.00 | 0.00 | 84 | 1011.7 |
| 20260507071302 | 15 | 273 | 6.4 | 14.5 | 0.00 | 0.00 | 0.00 | 84 | 1011.6 |
| 20260507070802 | 15 | 284 | 4.8 | 9.7 | 0.00 | 0.00 | 0.00 | 84 | 1011.5 |
| 20260507070539 | 15 | 277 | 4.8 | 12.9 | 0.00 | 0.00 | 0.00 | 84 | 1011.4 |
| 20260507065802 | 15 | 278 | 6.4 | 14.5 | 0.00 | 0.00 | 0.00 | 85 | 1011.4 |
| 20260507065305 | 15 | 302 | 6.4 | 14.5 | 0.00 | 0.00 | 0.00 | 85 | 1011.4 |
| 20260507064801 | 15 | 227 | 6.4 | 14.5 | 0.00 | 0.00 | 0.00 | 84 | 1011.3 |
| 20260507064302 | 15 | 282 | 4.8 | 12.9 | 0.00 | 0.00 | 0.00 | 84 | 1011.3 |
| 20260507063801 | 15 | 244 | 4.8 | 9.7 | 0.00 | 0.00 | 0.00 | 85 | 1011.3 |
| 20260507063302 | 14 | 257 | 4.8 | 9.7 | 0.00 | 0.00 | 0.00 | 84 | 1011.2 |
| 20260507062801 | 14 | 260 | 3.2 | 8.0 | 0.00 | 0.00 | 0.00 | 84 | 1011.2 |
| 20260507062306 | 14 | 263 | 1.6 | 8.0 | 0.00 | 0.00 | 0.00 | 84 | 1011.2 |
| 20260507062034 | 14 | 278 | 1.6 | 6.4 | 0.00 | 0.00 | 0.00 | 84 | 1011.1 |
| 20260507061302 | 14 | 278 | 0.0 | 6.4 | 0.00 | 0.00 | 0.00 | 84 | 1010.9 |
| 20260507060801 | 14 | 278 | 0.0 | 6.4 | 0.00 | 0.00 | 0.00 | 84 | 1010.9 |
| 20260507060301 | 14 | 278 | 0.0 | 4.8 | 0.00 | 0.00 | 0.00 | 84 | 1010.6 |
| 20260507055802 | 14 | 278 | 0.0 | 0.0 | 0.00 | 0.00 | 0.00 | 84 | 1010.6 |
| 20260507055305 | 13 | 304 | 0.0 | 0.0 | 0.00 | 0.00 | 0.00 | 84 | 1010.5 |
| 20260507054802 | 13 | 304 | 0.0 | 0.0 | 0.00 | 0.00 | 0.00 | 84 | 1010.5 |
| 20260507054300 | 13 | 304 | 0.0 | 0.0 | 0.00 | 0.00 | 0.00 | 84 | 1010.5 |